Temp
-14 -14 -15 -15 -16 -16 -16 -16 -16 -16 -16 -16 -17 -18 -18 -18 -18 -18 -18 -18 -18 -17 -17 -17 -18 -18 -17 -16 -16 -15 -15 -15 -14 -14 -13 -13 -13 -12 -12 -12 -12 -11 -11 -11 -11 -11 -11
-14 -14 -15 -15 -16 -16 -16 -16 -16 -16 -16 -17 -17 -17 -17 -18 -18 -18 -18 -18 -18 -18 -17 -17 -17 -18 -18 -17 -16 -16 -16 -15 -15 -14 -14 -13 -13 -13 -12 -12 -12 -11 -11 -10 -11 -11 -11
-14 -15 -15 -16 -16 -16 -16 -16 -17 -17 -17 -17 -18 -18 -20 -19 -19 -20 -18 -19 -18 -18 -18 -18 -18 -18 -18 -17 -16 -16 -16 -16 -15 -14 -14 -14 -13 -13 -13 -12 -12 -11 -11 -11 -11 -12 -11
-15 -15 -15 -16 -16 -17 -16 -17 -17 -18 -18 -19 -21 -21 -22 -21 -21 -20 -20 -19 -19 -19 -18 -18 -18 -17 -17 -17 -17 -17 -16 -16 -16 -15 -15 -14 -14 -14 -13 -12 -12 -12 -11 -11 -13 -12 -11
-15 -15 -15 -16 -17 -16 -16 -17 -17 -18 -20 -22 -24 -24 -24 -24 -22 -22 -21 -20 -19 -19 -19 -19 -18 -17 -17 -18 -17 -17 -16 -16 -16 -16 -16 -15 -15 -14 -13 -13 -12 -12 -12 -12 -13 -12 -12
-15 -15 -16 -16 -16 -16 -17 -17 -18 -20 -22 -23 -24 -25 -26 -25 -25 -24 -22 -20 -20 -20 -19 -19 -18 -17 -17 -17 -18 -17 -17 -16 -16 -16 -16 -16 -15 -14 -13 -13 -13 -14 -13 -12 -12 -12 -11
-15 -15 -15 -16 -16 -16 -17 -18 -20 -21 -23 -24 -25 -27 -28 -28 -27 -25 -24 -21 -20 -20 -20 -19 -18 -17 -17 -18 -18 -18 -17 -17 -16 -16 -16 -16 -15 -15 -15 -15 -14 -13 -13 -13 -13 -13 -12
-15 -15 -15 -16 -16 -17 -17 -19 -21 -22 -24 -25 -27 -28 -28 -27 -27 -26 -24 -23 -23 -21 -20 -20 -19 -18 -18 -18 -18 -18 -18 -17 -17 -16 -16 -16 -15 -16 -16 -15 -14 -14 -13 -14 -14 -13 -12
-15 -15 -15 -16 -17 -17 -18 -20 -22 -23 -24 -27 -28 -28 -28 -28 -28 -26 -25 -24 -23 -21 -21 -20 -19 -18 -18 -18 -18 -18 -18 -17 -17 -17 -16 -16 -16 -16 -16 -15 -15 -15 -14 -14 -13 -14 -13
-15 -15 -16 -16 -17 -17 -19 -21 -23 -24 -26 -28 -28 -28 -27 -27 -27 -27 -25 -25 -24 -23 -21 -20 -20 -18 -18 -18 -18 -18 -18 -17 -17 -17 -16 -16 -16 -16 -16 -15 -16 -15 -15 -15 -14 -14 -13
-15 -15 -16 -16 -17 -17 -19 -21 -23 -24 -26 -27 -27 -27 -27 -27 -27 -27 -25 -24 -24 -23 -21 -21 -19 -19 -18 -18 -18 -18 -17 -17 -17 -17 -16 -17 -17 -16 -16 -16 -15 -15 -15 -15 -15 -14 -14
-15 -15 -16 -16 -16 -17 -20 -22 -23 -24 -25 -26 -27 -27 -27 -27 -27 -26 -25 -24 -23 -22 -21 -21 -19 -19 -18 -18 -18 -18 -17 -17 -17 -16 -16 -16 -16 -16 -17 -16 -15 -15 -15 -15 -15 -14 -14
-16 -15 -16 -17 -16 -17 -20 -22 -23 -24 -25 -26 -27 -26 -26 -26 -26 -24 -24 -23 -23 -21 -21 -20 -19 -19 -19 -18 -18 -18 -17 -17 -17 -17 -17 -17 -17 -17 -16 -16 -16 -16 -15 -15 -15 -14 -14
-15 -15 -16 -16 -16 -17 -20 -21 -23 -24 -25 -26 -26 -26 -26 -26 -25 -23 -23 -22 -21 -20 -20 -19 -19 -19 -19 -18 -19 -18 -18 -17 -17 -17 -17 -17 -17 -17 -16 -16 -16 -15 -15 -15 -14 -14 -14
-15 -15 -16 -16 -16 -17 -20 -21 -23 -24 -25 -26 -26 -26 -26 -25 -23 -23 -22 -21 -21 -21 -20 -19 -19 -19 -18 -18 -18 -18 -17 -17 -17 -17 -17 -17 -17 -16 -16 -16 -16 -16 -16 -15 -15 -15 -14
-16 -16 -16 -16 -16 -17 -20 -20 -23 -23 -24 -25 -25 -25 -25 -22 -22 -21 -22 -21 -21 -20 -19 -19 -19 -18 -18 -18 -18 -17 -17 -17 -17 -17 -17 -17 -16 -16 -16 -16 -16 -16 -16 -15 -15 -14 -14
-16 -16 -16 -16 -16 -17 -19 -20 -22 -23 -24 -24 -23 -22 -22 -21 -21 -22 -22 -21 -20 -20 -19 -19 -19 -18 -18 -18 -18 -17 -17 -17 -17 -17 -16 -16 -16 -16 -16 -16 -16 -15 -15 -15 -15 -15 -14
-16 -16 -16 -16 -16 -17 -18 -19 -21 -22 -23 -23 -22 -22 -23 -22 -21 -22 -21 -20 -20 -20 -19 -19 -18 -19 -19 -18 -18 -18 -18 -17 -17 -17 -17 -16 -16 -17 -16 -16 -16 -15 -15 -15 -15 -15 -14
-16 -16 -16 -16 -17 -17 -18 -19 -21 -21 -21 -21 -22 -22 -22 -22 -22 -22 -21 -21 -20 -20 -20 -19 -19 -19 -19 -18 -18 -18 -17 -17 -17 -17 -17 -17 -17 -16 -16 -16 -16 -15 -15 -15 -15 -15 -15
-16 -16 -16 -16 -17 -17 -18 -19 -20 -20 -21 -21 -21 -21 -20 -21 -21 -21 -20 -20 -20 -20 -20 -19 -19 -19 -18 -18 -18 -18 -17 -17 -17 -17 -17 -17 -17 -16 -16 -16 -15 -15 -16 -15 -15 -15 -14
-16 -16 -16 -16 -17 -17 -18 -20 -20 -20 -20 -20 -20 -20 -20 -20 -20 -20 -20 -20 -20 -20 -19 -19 -19 -19 -19 -18 -18 -18 -18 -17 -17 -17 -17 -17 -17 -17 -16 -16 -15 -15 -15 -15 -15 -15 -14
-16 -16 -16 -16 -17 -17 -18 -19 -19 -20 -21 -20 -20 -20 -20 -20 -20 -20 -20 -20 -19 -19 -19 -19 -19 -19 -19 -19 -18 -18 -18 -18 -17 -17 -17 -17 -17 -17 -16 -16 -16 -15 -15 -16 -15 -15 -15
-16 -16 -16 -16 -17 -17 -17 -18 -19 -19 -19 -20 -20 -20 -19 -19 -19 -19 -19 -19 -19 -19 -19 -19 -19 -19 -19 -18 -18 -18 -18 -18 -17 -17 -17 -17 -17 -17 -16 -16 -16 -16 -16 -16 -15 -15 -15
-17 -16 -16 -16 -17 -17 -17 -17 -18 -19 -20 -19 -19 -20 -19 -19 -19 -19 -19 -19 -19 -19 -19 -18 -18 -18 -19 -18 -18 -18 -18 -18 -17 -17 -17 -17 -17 -17 -17 -17 -16 -16 -16 -16 -15 -15 -15
-17 -16 -16 -17 -17 -17 -17 -17 -18 -18 -19 -19 -19 -19 -20 -19 -19 -19 -19 -19 -19 -18 -18 -18 -18 -18 -18 -18 -18 -18 -18 -18 -17 -17 -17 -17 -17 -17 -17 -17 -16 -16 -16 -16 -16 -15 -15
-16 -16 -16 -17 -17 -17 -17 -17 -18 -18 -18 -19 -19 -19 -19 -19 -19 -19 -19 -19 -18 -18 -18 -18 -18 -18 -18 -18 -18 -18 -18 -17 -17 -17 -17 -17 -17 -17 -17 -17 -16 -16 -16 -16 -16 -16 -16
-17 -16 -17 -17 -17 -17 -17 -17 -18 -18 -18 -18 -19 -19 -19 -19 -19 -19 -19 -19 -19 -19 -19 -19 -19 -18 -18 -18 -18 -18 -17 -17 -17 -17 -17 -17 -17 -17 -17 -17 -17 -16 -16 -16 -16 -16 -16
-17 -17 -17 -17 -17 -17 -17 -17 -18 -18 -18 -18 -18 -18 -19 -19 -19 -19 -19 -19 -19 -19 -20 -19 -19 -19 -19 -19 -18 -18 -18 -18 -18 -18 -18 -17 -17 -17 -17 -17 -16 -16 -16 -16 -16 -16 -16
-17 -17 -16 -17 -17 -17 -17 -17 -18 -18 -18 -18 -18 -18 -18 -19 -19 -19 -19 -19 -19 -20 -20 -20 -20 -20 -20 -19 -19 -19 -18 -18 -18 -17 -17 -17 -17 -17 -17 -16 -16 -16 -16 -16 -16 -16 -16
Height
5729 5721 5713 5705 5699 5690 5681 5673 5665 5658 5649 5639 5630 5625 5619 5615 5615 5615 5618 5623 5627 5631 5635 5639 5643 5648 5654 5663 5670 5676 5682 5689 5695 5702 5709 5714 5720 5726 5733 5738 5742 5747 5750 5755 5760 5764 5766
5724 5715 5706 5698 5689 5679 5669 5659 5649 5639 5629 5618 5607 5598 5594 5590 5591 5596 5599 5605 5611 5618 5623 5628 5634 5639 5646 5656 5660 5668 5673 5679 5687 5694 5700 5706 5713 5718 5723 5728 5733 5738 5742 5747 5753 5758 5760
5717 5707 5698 5687 5677 5667 5654 5643 5631 5617 5602 5586 5571 5560 5556 5559 5566 5569 5577 5586 5594 5604 5611 5617 5624 5630 5639 5647 5654 5660 5667 5671 5678 5685 5693 5698 5704 5710 5716 5721 5726 5731 5737 5741 5745 5749 5751
5710 5701 5690 5678 5666 5653 5639 5625 5610 5593 5572 5555 5542 5534 5527 5528 5531 5542 5551 5564 5577 5589 5599 5607 5614 5622 5633 5637 5647 5652 5659 5664 5671 5677 5684 5691 5696 5701 5708 5714 5718 5723 5727 5732 5738 5739 5744
5703 5693 5682 5669 5655 5640 5625 5609 5589 5568 5547 5532 5521 5512 5507 5507 5509 5514 5525 5543 5559 5574 5587 5598 5605 5615 5623 5631 5640 5646 5653 5659 5665 5671 5677 5682 5688 5694 5700 5705 5710 5715 5720 5724 5728 5730 5734
5696 5686 5673 5659 5645 5629 5610 5590 5568 5545 5527 5513 5503 5498 5494 5494 5494 5498 5507 5519 5541 5562 5577 5586 5596 5607 5620 5626 5632 5639 5646 5653 5659 5665 5671 5677 5682 5687 5693 5697 5704 5709 5713 5716 5720 5724 5726
5691 5679 5665 5650 5635 5617 5596 5574 5551 5530 5512 5501 5495 5491 5490 5488 5487 5489 5498 5509 5529 5552 5564 5579 5593 5603 5612 5618 5625 5633 5639 5648 5654 5660 5666 5671 5677 5682 5687 5691 5696 5700 5705 5709 5713 5716 5721
5685 5673 5658 5643 5626 5607 5585 5563 5541 5520 5504 5495 5492 5491 5490 5488 5486 5485 5490 5499 5514 5540 5558 5573 5585 5594 5603 5611 5620 5627 5635 5644 5649 5655 5661 5668 5673 5678 5681 5684 5689 5694 5700 5704 5706 5708 5711
5680 5668 5652 5637 5618 5598 5574 5553 5535 5517 5503 5496 5494 5492 5490 5487 5486 5483 5484 5493 5510 5532 5550 5567 5577 5588 5600 5609 5616 5624 5632 5638 5645 5650 5657 5663 5669 5673 5677 5680 5685 5688 5692 5695 5700 5702 5706
5676 5663 5648 5632 5612 5591 5568 5549 5533 5517 5507 5501 5498 5494 5491 5488 5486 5483 5485 5495 5512 5533 5547 5563 5572 5585 5595 5604 5612 5620 5627 5634 5641 5647 5652 5658 5662 5666 5671 5676 5680 5683 5687 5691 5695 5697 5700
5672 5660 5644 5628 5608 5586 5564 5549 5533 5519 5510 5504 5499 5494 5490 5486 5485 5484 5488 5499 5513 5529 5547 5560 5571 5583 5592 5602 5612 5617 5624 5631 5638 5644 5651 5656 5659 5663 5668 5672 5675 5679 5683 5687 5689 5692 5695
5669 5657 5642 5625 5606 5583 5563 5548 5533 5521 5511 5503 5496 5491 5486 5483 5483 5485 5492 5507 5521 5537 5549 5558 5569 5580 5590 5600 5608 5615 5622 5630 5635 5641 5645 5651 5655 5660 5665 5667 5671 5676 5679 5682 5685 5688 5690
5666 5654 5641 5623 5604 5581 5563 5548 5534 5521 5510 5501 5492 5487 5482 5481 5484 5491 5498 5515 5531 5536 5545 5558 5570 5581 5591 5601 5608 5615 5622 5628 5635 5639 5644 5649 5654 5657 5661 5664 5668 5673 5676 5678 5681 5683 5685
5664 5652 5639 5623 5603 5580 5563 5548 5535 5522 5511 5504 5497 5491 5485 5484 5490 5501 5512 5528 5534 5540 5548 5561 5573 5583 5592 5599 5606 5614 5620 5626 5632 5637 5642 5647 5651 5654 5657 5662 5666 5670 5673 5675 5675 5678 5678
5662 5651 5638 5624 5604 5582 5565 5549 5535 5522 5511 5506 5502 5497 5495 5494 5503 5516 5527 5532 5538 5545 5555 5565 5573 5584 5591 5598 5606 5613 5619 5626 5631 5637 5641 5644 5649 5652 5656 5660 5665 5667 5669 5671 5670 5670 5668
5661 5651 5639 5625 5607 5586 5570 5553 5535 5522 5510 5509 5506 5502 5504 5509 5520 5526 5531 5536 5543 5551 5561 5570 5579 5586 5593 5599 5607 5613 5619 5625 5630 5635 5638 5643 5648 5651 5654 5658 5661 5663 5664 5665 5664 5662 5661
5660 5651 5639 5627 5611 5592 5575 5556 5539 5524 5514 5514 5515 5517 5520 5527 5532 5535 5540 5546 5552 5558 5567 5575 5581 5589 5594 5601 5607 5614 5620 5625 5629 5633 5637 5641 5646 5651 5652 5653 5656 5658 5658 5658 5658 5658 5652
5659 5651 5640 5629 5614 5597 5581 5563 5547 5533 5525 5525 5527 5538 5539 5543 5546 5545 5550 5556 5560 5567 5572 5578 5582 5587 5594 5603 5608 5614 5619 5624 5628 5632 5637 5640 5643 5645 5648 5650 5651 5653 5653 5653 5651 5651 5649
5659 5650 5642 5632 5619 5602 5588 5574 5560 5549 5542 5546 5549 5549 5550 5553 5554 5556 5561 5566 5569 5575 5580 5583 5587 5591 5597 5603 5609 5613 5618 5623 5627 5631 5635 5638 5640 5642 5644 5647 5648 5649 5649 5647 5644 5642 5644
5658 5651 5643 5634 5624 5610 5597 5587 5576 5571 5567 5568 5570 5567 5565 5564 5565 5567 5570 5574 5578 5582 5585 5589 5592 5596 5601 5604 5609 5614 5618 5622 5626 5630 5633 5636 5638 5639 5641 5644 5645 5644 5642 5642 5639 5637 5634
5657 5650 5644 5636 5627 5618 5607 5599 5591 5589 5585 5584 5583 5582 5579 5578 5579 5580 5583 5584 5587 5590 5592 5594 5596 5599 5603 5606 5610 5614 5618 5622 5626 5629 5632 5634 5635 5637 5638 5639 5639 5639 5638 5636 5633 5629 5626
5654 5649 5644 5637 5630 5622 5614 5609 5605 5600 5598 5598 5594 5591 5590 5589 5590 5591 5592 5593 5594 5594 5596 5598 5600 5603 5606 5609 5612 5615 5619 5622 5625 5627 5630 5631 5633 5634 5634 5635 5634 5634 5634 5633 5630 5627 5624
5650 5646 5642 5637 5631 5625 5618 5614 5609 5609 5605 5600 5600 5599 5597 5597 5596 5597 5598 5599 5600 5600 5601 5601 5603 5605 5608 5610 5613 5615 5618 5621 5623 5626 5627 5629 5630 5631 5631 5631 5633 5634 5633 5631 5628 5626 5622
5645 5642 5640 5636 5630 5625 5619 5615 5613 5609 5607 5606 5604 5604 5603 5602 5601 5601 5602 5603 5603 5603 5604 5604 5604 5605 5608 5610 5612 5615 5617 5620 5621 5623 5625 5626 5628 5628 5628 5629 5631 5632 5630 5628 5626 5623 5619
5639 5637 5636 5633 5628 5624 5619 5615 5612 5610 5608 5606 5606 5604 5604 5604 5603 5602 5602 5602 5602 5603 5604 5604 5605 5605 5606 5608 5611 5613 5615 5618 5619 5621 5622 5624 5625 5626 5627 5627 5629 5629 5629 5628 5625 5623 5619
5633 5631 5631 5628 5624 5620 5616 5612 5611 5608 5605 5604 5603 5604 5603 5603 5603 5602 5601 5600 5600 5600 5601 5601 5602 5603 5604 5605 5607 5610 5612 5615 5616 5618 5620 5621 5622 5624 5624 5625 5626 5626 5626 5625 5623 5622 5618
5626 5626 5625 5623 5620 5616 5612 5609 5607 5605 5603 5601 5599 5598 5598 5598 5599 5599 5598 5597 5597 5597 5597 5598 5599 5601 5602 5602 5604 5606 5609 5611 5613 5615 5617 5618 5619 5621 5621 5622 5624 5624 5624 5623 5622 5622 5616
5618 5619 5617 5616 5614 5611 5607 5604 5601 5600 5599 5598 5596 5593 5592 5592 5591 5592 5593 5593 5592 5593 5593 5594 5596 5596 5598 5599 5601 5603 5605 5607 5609 5612 5613 5615 5616 5618 5619 5620 5622 5621 5621 5620 5619 5617 5614
5610 5611 5610 5609 5607 5604 5601 5598 5596 5593 5591 5589 5587 5586 5584 5583 5584 5585 5587 5588 5587 5587 5588 5587 5590 5592 5594 5596 5598 5599 5601 5603 5606 5608 5609 5612 5613 5615 5617 5617 5618 5618 5618 5618 5616 5615 5613
Wind_Speed
56 55 53 52 53 56 56 57 58 58 59 63 57 50 53 51 45 46 46 45 44 42 38 35 39 37 42 35 37 46 51 51 52 51 48 47 48 49 49 48 48 46 45 43 41 40 40
56 57 56 56 60 61 62 64 65 66 68 73 71 62 56 56 54 50 48 47 47 44 42 37 36 40 38 39 35 37 42 48 50 51 50 49 47 47 48 49 50 48 46 44 40 40 42
58 58 59 61 64 65 69 71 74 76 82 77 68 68 67 65 63 60 55 51 48 47 44 41 36 37 39 38 38 35 36 39 44 48 47 48 49 48 46 47 47 46 45 42 40 39 41
58 61 62 66 66 70 74 79 82 87 78 68 61 57 54 52 52 60 65 60 52 49 46 44 41 37 35 39 37 33 35 35 37 40 43 45 45 46 46 46 47 46 46 43 38 41 41
59 63 65 69 71 75 81 85 90 81 73 62 57 50 46 41 41 38 47 67 59 51 48 39 45 38 37 39 34 34 32 33 34 35 34 40 43 46 46 46 47 46 45 42 40 42 43
59 63 67 71 75 81 87 92 88 75 64 55 44 36 31 28 29 28 31 47 66 53 48 45 45 41 35 32 33 32 32 32 32 31 31 32 36 45 45 45 43 40 43 44 41 43 45
59 65 70 74 77 85 91 93 79 66 58 42 28 20 17 14 16 19 21 42 58 53 44 47 43 38 35 34 35 34 31 31 31 31 33 34 31 33 37 39 41 42 42 42 41 42 43
62 67 73 76 80 88 95 87 71 63 48 26 14 11 17 22 17 14 19 40 54 55 53 45 38 39 34 34 33 35 32 29 27 29 31 35 37 34 29 35 37 40 38 36 37 40 44
65 71 74 77 83 89 92 76 68 60 39 18 10 10 10 13 20 23 19 36 53 59 57 51 49 42 33 33 30 31 31 28 28 28 28 31 33 34 33 34 30 32 35 35 37 36 37
66 71 73 77 83 90 85 68 62 60 45 20 13 11 16 12 13 16 15 39 52 43 52 48 43 39 35 33 31 31 32 30 28 27 27 29 31 30 30 30 28 28 28 28 28 29 33
65 69 72 76 83 88 77 64 57 53 42 27 22 21 17 18 11 4 22 42 57 53 46 46 41 35 34 33 29 30 30 28 25 25 25 25 26 26 25 24 26 24 22 22 25 27 27
65 67 70 75 82 85 70 63 56 50 42 35 30 24 25 18 5 12 38 45 41 42 34 38 40 36 34 33 30 30 29 27 25 26 24 24 25 24 22 22 20 18 18 20 21 22 27
61 65 67 73 81 82 69 64 57 50 38 35 30 20 18 6 11 35 53 47 52 21 34 41 38 34 29 28 30 27 25 24 24 22 23 19 21 20 21 20 18 16 16 19 22 24 26
59 62 64 71 79 79 69 68 59 47 37 30 24 22 15 17 31 53 45 38 25 30 39 39 36 31 26 27 29 26 26 24 24 22 22 20 22 21 18 17 17 17 17 20 24 26 29
56 59 61 67 75 75 70 69 59 50 31 22 22 18 20 30 47 50 36 25 24 31 36 37 34 27 26 29 26 27 26 24 23 20 19 20 18 18 17 16 16 15 19 22 26 30 35
53 57 58 64 72 74 68 70 60 48 28 22 22 15 28 54 50 32 33 28 24 32 33 30 29 27 26 24 28 28 25 23 20 18 20 18 18 16 15 15 17 19 19 23 27 34 36
50 54 55 60 68 72 68 73 62 45 25 25 27 38 60 46 36 40 37 27 24 32 30 28 25 21 24 28 26 24 24 22 20 20 19 17 16 12 13 17 16 18 22 26 28 29 33
47 50 51 56 62 68 67 72 61 38 32 36 49 50 37 34 38 39 36 32 24 20 20 18 22 26 25 26 22 22 23 22 21 19 16 15 11 12 14 15 19 20 21 23 25 28 28
44 47 48 52 57 60 64 64 52 35 44 51 42 44 38 36 33 33 30 18 26 21 17 19 20 23 28 24 22 23 23 22 19 18 14 12 12 13 15 17 17 18 19 22 24 26 19
42 42 44 47 51 53 54 54 44 39 46 42 31 32 33 34 32 29 32 24 21 15 11 19 18 21 25 24 22 21 20 20 19 16 14 12 12 16 16 15 15 16 17 18 20 17 16
39 37 39 42 45 49 44 41 35 27 30 28 29 25 25 28 28 27 23 16 15 8 10 10 19 20 23 24 23 21 20 18 16 14 11 12 14 13 14 14 10 8 9 10 9 15 21
34 32 35 36 39 42 38 35 27 20 26 19 18 19 18 14 18 17 15 16 13 10 8 7 15 16 17 17 19 18 17 15 14 14 14 13 11 9 11 9 7 7 4 5 9 13 18
28 28 31 31 32 35 36 29 24 11 11 8 10 10 11 9 10 7 6 8 9 9 8 7 6 11 14 15 16 16 15 15 14 13 11 7 7 8 7 7 4 1 3 5 7 14 16
23 26 26 27 27 29 30 28 20 11 4 6 4 4 4 1 1 2 4 4 3 2 7 7 6 2 9 17 14 14 14 13 11 10 7 6 5 6 9 8 5 2 2 5 7 11 14
22 23 23 23 25 24 25 25 20 15 6 3 4 5 4 5 4 2 5 8 10 13 8 9 9 6 6 11 19 15 14 13 12 11 8 8 4 7 7 4 4 4 2 3 7 10 14
19 19 20 21 21 22 21 21 20 16 10 1 3 11 6 9 9 10 12 12 12 13 14 13 12 11 7 12 15 16 14 14 15 12 9 7 5 8 8 7 5 3 2 5 9 10 10
18 18 18 21 19 20 22 21 19 19 12 10 11 13 17 22 21 20 16 17 17 16 16 16 14 13 10 12 17 19 19 18 16 12 8 7 8 8 6 6 5 5 7 7 10 13 14
19 20 18 21 21 21 23 24 20 18 19 14 11 17 20 22 23 23 25 22 21 19 17 17 16 14 13 13 16 18 19 18 16 13 10 9 9 8 7 9 7 7 8 8 10 11 13
23 20 21 22 24 24 25 26 24 22 22 23 22 16 17 27 25 25 27 25 24 21 18 16 14 16 15 14 15 16 17 17 17 16 13 12 10 10 11 10 8 8 8 7 9 11 13
Wind_Direction
335 337 334 331 330 328 328 327 324 320 316 314 307 300 290 279 264 261 255 247 245 243 245 240 233 236 226 226 227 225 225 224 224 225 225 225 226 228 229 230 233 235 239 243 243 246 244
336 337 335 331 328 328 328 327 324 320 317 314 309 295 276 264 261 253 251 247 241 239 239 241 237 229 231 223 224 223 225 224 225 225 226 226 228 228 228 230 231 234 236 242 246 247 247
336 337 335 332 330 329 329 327 325 323 320 314 300 287 278 262 246 243 240 241 240 234 234 236 235 231 227 226 225 226 221 224 226 226 226 228 228 229 230 232 234 236 238 241 242 239 239
338 337 335 332 331 332 330 329 327 326 320 310 303 296 288 281 268 250 237 232 231 231 228 230 232 229 225 224 220 224 219 221 223 225 226 225 227 229 231 232 234 235 237 237 238 238 236
339 338 335 332 334 333 331 330 330 329 323 316 309 300 291 281 268 256 235 227 223 222 224 222 229 226 219 223 217 221 222 218 218 220 226 227 226 229 229 231 234 236 238 238 236 239 239
340 338 334 334 336 335 333 333 335 333 325 321 315 306 297 286 274 259 231 213 220 211 214 218 221 224 222 221 218 220 222 217 217 217 217 221 225 230 229 232 236 239 239 240 239 239 241
341 338 337 337 338 337 336 337 339 339 329 328 321 323 336 330 301 265 224 204 204 204 200 216 215 216 215 213 214 216 217 216 214 215 216 215 223 224 237 234 233 235 237 240 244 246 246
341 340 338 340 339 340 337 343 346 347 337 334 349 34 24 9 354 317 210 197 188 187 184 192 201 209 208 210 210 213 212 216 217 217 219 221 224 223 229 231 231 236 238 241 245 248 246
342 341 339 341 342 341 342 348 353 358 351 1 8 11 7 358 354 336 209 187 178 177 182 189 199 205 203 205 209 210 208 209 215 217 218 223 224 224 229 233 230 234 237 240 242 249 254
342 342 341 341 345 343 347 354 356 2 7 8 355 342 340 338 342 324 188 176 163 170 178 181 196 195 200 200 207 208 206 206 212 217 220 220 225 224 223 228 232 233 240 246 252 254 255
342 342 343 343 346 347 353 357 356 359 359 359 349 339 336 324 323 352 169 167 169 165 179 180 192 189 197 198 205 207 205 205 211 218 221 223 224 224 222 220 228 233 238 245 247 253 255
343 344 345 347 348 349 355 357 355 356 354 348 334 327 328 325 303 149 147 154 160 161 175 179 187 191 196 195 200 202 203 205 212 216 218 215 216 216 213 215 219 224 226 235 243 250 254
344 345 345 350 351 352 358 356 353 354 354 356 358 2 355 350 125 150 153 137 149 152 168 181 180 187 189 190 197 198 199 202 207 213 212 206 205 200 200 200 204 212 226 242 253 259 266
345 347 348 352 354 356 360 355 352 355 354 0 13 7 34 106 132 147 126 136 130 151 170 176 176 181 185 185 190 197 196 198 203 202 193 182 187 189 191 199 213 218 241 258 264 267 267
345 348 351 354 356 360 359 356 350 356 351 12 19 37 79 115 137 139 112 105 107 146 169 170 173 188 187 186 191 192 192 198 197 190 190 184 181 195 201 210 226 244 253 262 271 278 278
346 349 352 356 359 2 1 357 355 0 3 35 27 78 104 131 118 96 89 118 106 139 165 177 186 183 184 189 186 191 191 193 190 190 191 191 188 200 215 233 240 249 267 277 280 284 289
346 349 353 358 1 5 2 360 359 7 23 55 85 105 117 109 89 84 91 106 116 110 134 154 172 184 181 179 184 189 190 193 192 197 194 201 206 212 228 244 261 271 278 282 288 295 290
347 350 353 359 2 8 4 4 4 23 59 86 111 122 108 94 102 103 102 109 116 117 128 151 165 171 177 177 181 187 191 193 196 206 208 213 220 231 246 262 271 278 284 287 287 288 301
345 348 352 359 4 11 9 10 14 53 87 105 84 74 75 86 90 101 105 96 125 115 137 147 163 171 167 176 182 183 188 194 199 206 211 217 231 250 260 267 280 285 284 287 291 299 320
340 346 351 358 7 13 14 18 23 93 92 93 76 77 88 86 82 107 134 131 143 123 98 163 156 167 172 175 180 183 191 194 199 203 213 229 249 255 267 276 281 281 282 289 298 308 340
336 342 348 356 7 15 19 26 37 102 94 79 68 76 92 94 95 102 112 120 130 119 92 143 169 169 175 184 188 190 194 201 206 217 229 236 244 265 278 282 282 282 308 321 337 355 349
332 341 345 354 5 18 24 23 39 100 98 60 70 64 77 94 93 108 108 99 92 89 95 100 179 177 173 179 189 193 202 207 207 211 219 237 262 262 274 273 278 322 5 4 21 4 352
327 338 340 349 3 13 24 25 29 66 163 79 42 58 67 79 115 91 84 68 73 68 66 74 108 183 189 185 182 184 189 196 204 210 230 254 240 262 257 245 252 286 347 9 24 8 15
321 332 334 341 356 6 20 22 22 32 51 243 252 13 345 293 315 240 291 270 345 43 358 23 48 154 201 205 203 196 195 197 211 229 244 250 234 251 260 232 203 210 25 56 22 13 360
315 324 327 331 342 357 7 20 19 4 13 231 200 152 11 297 282 261 251 268 270 268 289 307 309 327 243 215 214 214 213 217 229 243 253 239 238 239 203 214 200 183 89 12 352 356 353
303 316 320 321 331 340 353 360 12 14 330 271 261 227 221 287 286 270 251 243 243 248 255 261 265 270 283 223 213 221 226 227 240 241 240 230 255 226 219 225 221 199 330 333 339 345 356
292 305 311 311 320 330 338 343 348 354 356 298 261 240 251 256 267 277 278 259 249 252 257 259 260 256 249 227 210 211 218 228 231 228 233 243 243 217 208 234 235 277 305 325 335 343 358
282 293 305 303 303 315 323 327 329 333 334 333 292 271 256 243 255 264 264 269 265 258 263 264 251 240 225 222 214 215 220 223 227 226 238 238 239 225 248 246 275 292 301 319 329 348 352
276 284 298 297 296 308 312 316 318 318 318 317 315 297 273 249 251 253 247 263 268 262 253 234 225 224 220 219 218 221 224 228 231 233 237 237 240 237 252 252 262 285 297 300 320 335 341